Preview of NWS' New Version of Forecast
This preview is not operational and should not be used for support decisions.

Regional Weather Roundup (RWR)

Issued by National Weather Service (NWS)

                            
000
ASUS46 KPQR 170710
RWROR 

OREGON REGIONAL WEATHER ROUNDUP
NATIONAL WEATHER SERVICE PORTLAND OR
1200 AM PDT MON JUN 17 2019

NOTE: "FAIR" INDICATES FEW OR NO CLOUDS BELOW 12,000 FEET WITH
NO SIGNIFICANT WEATHER AND/OR OBSTRUCTIONS TO VISIBILITY.

ORZ001>013-170800-
NORTHWEST OREGON

  
CITY           SKY/WX    TMP DP  RH WIND       PRES   REMARKS
ASTORIA        CLOUDY    55  54  96 W5        30.11S FOG              
TILLAMOOK      CLOUDY    55  52  88 SW3       30.13S                  
NEWPORT        LGT RAIN  50  50 100 N7        30.14S VSB 1/2          
PORTLAND       PTCLDY    63  52  67 NW12      30.06R                  
VANCOUVER WA   CLEAR     62  52  69 N6        30.05S                  
SCAPPOOSE      CLEAR     60  52  74 VRB6      30.05R                  
HILLSBORO      CLEAR     59  52  77 W8        30.06R                  
AURORA         CLEAR     63  51  65 NW3       30.06S                  
MCMINNVILLE    CLEAR     59  53  80 CALM      30.05S                  
SALEM          CLEAR     60  52  74 N8        30.05S                  
CORVALLIS      CLEAR     60  52  74 NW9       30.07R                  
EUGENE         CLEAR     59  52  77 W3        30.06R                  
$$

ORZ021-028-170800-
SOUTHWEST OREGON

  
CITY           SKY/WX    TMP DP  RH WIND       PRES   REMARKS
NORTH BEND     CLOUDY    52  52 100 N14G21    30.13S FOG              
BROOKINGS      CLEAR     53  51  93 CALM      29.97S                  
ROSEBURG       PTCLDY    69  48  47 VRB3      30.03R                  
SEXTON SUMMIT  PTCLDY    57  47  69 N14G29    30.08R                  
GRANTS PASS    FAIR      72  50  46 NW7       30.01S                  
MEDFORD        CLEAR     70  43  37 CALM      29.98S                  
$$

ORZ014>016-041-170800-
COLUMBIA GORGE

  
CITY           SKY/WX    TMP DP  RH WIND       PRES   REMARKS
TROUTDALE      PTCLDY    63  53  70 CALM      30.05R                  
HOOD RIVER     PTCLDY    64  52  63 W6        29.97R                  
THE DALLES     MOCLDY    70  54  56 NW15      29.90R                  
$$

ORZ029>031-041-044-049-050-061>064-502-503-505>511-170800-
EASTERN OREGON

  
CITY           SKY/WX    TMP DP  RH WIND       PRES   REMARKS
MADRAS         MOCLDY    55  45  67 N10       30.03S                  
REDMOND        MOCLDY    55  38  52 CALM      30.04S                  
BEND           PTCLDY    61  39  44 CALM      30.05S                  
PRINEVILLE     MOCLDY    61  37  41 CALM      30.04S                  
KLAMATH FALLS  CLEAR     61  47  59 W6        30.04R                  
LAKEVIEW       CLEAR     63  38  39 N15       30.06R                  
HERMISTON      PTCLDY    73  51  46 SW15      29.86R                  
PENDLETON      PTCLDY    69  49  48 S5        29.91R                  
JOHN DAY       CLEAR     66  38  35 W3        30.02S                  
MEACHAM        PTCLDY    52  46  80 CALM      30.02S                  
LA GRANDE      CLEAR     68  47  46 NW13      29.96R                  
BAKER CITY     CLEAR     61  48  62 SW5       29.98S                  
BURNS          CLEAR     60  40  47 W8        30.01S                  
ROME             N/A     57  41  55 S3        29.96S                  
ONTARIO        PTCLDY    77  46  33 N14       29.87R                  
$$